AUA22D EBBR-LOWW

Flight info

Callsign AUA22D
Flight time N/A
Altitude 35000
Route SOPOK Y863 ROPUV L607 EMGOD DCT BOMBI DCT BARSU DCT EKSOS DCT LULAR DCT RUDAP DCT BUDEX BUDEX2W
Aircraft A320/M-SDE3FGHIRWY/LB1

Departure

Time 2026-04-30 15:14
Airport Brussels Airport (EBBR)

Arrival

Time N/A
Airport Vienna International Airport (LOWW)
Time Latitude Longitude Altitude Speed Heading
2026-04-30 14:58 50.90409 4.48594 121 ft 0 kts 155°
2026-04-30 15:00 50.90443 4.48567 118 ft 4 kts 148°
2026-04-30 15:01 50.90478 4.48510 118 ft 4 kts 91°
2026-04-30 15:01 50.90476 4.48491 118 ft 1 kts 65°
2026-04-30 15:01 50.90476 4.48489 118 ft 0 kts 65°
2026-04-30 15:03 50.90481 4.48506 117 ft 4 kts 65°
2026-04-30 15:04 50.90529 4.48676 119 ft 12 kts 65°
2026-04-30 15:04 50.90650 4.49093 120 ft 15 kts 65°
2026-04-30 15:05 50.90764 4.49491 121 ft 3 kts 65°
2026-04-30 15:06 50.90766 4.49499 122 ft 0 kts 65°
2026-04-30 15:06 50.90767 4.49499 122 ft 1 kts 65°
2026-04-30 15:07 50.90793 4.49704 121 ft 14 kts 142°
2026-04-30 15:07 50.90617 4.49658 124 ft 12 kts 195°
2026-04-30 15:08 50.90469 4.49597 124 ft 12 kts 194°
2026-04-30 15:08 50.90226 4.49498 127 ft 11 kts 195°
2026-04-30 15:09 50.90060 4.49431 128 ft 12 kts 194°
2026-04-30 15:09 50.89864 4.49351 139 ft 12 kts 195°
2026-04-30 15:10 50.89701 4.49284 149 ft 11 kts 194°
2026-04-30 15:11 50.89423 4.49129 163 ft 10 kts 194°
2026-04-30 15:11 50.89316 4.49087 167 ft 3 kts 194°
2026-04-30 15:12 50.89191 4.49041 175 ft 9 kts 180°
2026-04-30 15:13 50.89171 4.49197 176 ft 0 kts 70°
2026-04-30 15:14 50.89974 4.52709 416 ft 169 kts 71°
2026-04-30 15:14 50.91708 4.58428 2086 ft 216 kts 64°
2026-04-30 15:16 50.95139 4.70719 5820 ft 257 kts 79°
2026-04-30 15:17 50.93592 4.81009 9156 ft 264 kts 139°
2026-04-30 15:18 50.84856 4.88492 11871 ft 329 kts 171°
2026-04-30 15:19 50.77899 4.89567 13967 ft 341 kts 171°